Weather History for Wrangell, AK

Change the Weather History Date:

Saturday, March 2, 2013

  Actual Average Record
Temperature  
Mean Temperature 36 °F -  
Max Temperature 39 °F 38 °F 48 °F (1968)
Min Temperature 33 °F 27 °F 4 °F (1955)
Degree Days  
Heating Degree Days 29    
Moisture  
Dew Point 32 °F    
Average Humidity 83    
Maximum Humidity 93    
Minimum Humidity 75    
Precipitation  
Precipitation 0.09 in - - ()
Sea Level Pressure  
Sea Level Pressure 30.04 in    
Wind  
Wind Speed 6 mph (ENE)    
Max Wind Speed 13 mph    
Max Gust Speed -    
Visibility 10 miles    
Events      
Averages and records for this station are not official NWS values.
T = Trace of Precipitation, MM = Missing Value Source: NWS Daily Summary

Daily Weather History Graph

Daily Weather History Graph

Search for Another Location

Airport:

Trip Planner

Search our weather history database for the weather conditions in past years. The results will help you decide how hot, cold, wet, or windy it might be!

Date:

Astronomy

Mar. 02, 2013 Rise Set
Actual Time 6:37 AM AKST 5:26 PM AKST
Civil Twilight 6:00 AM AKST 6:03 PM AKST
Nautical Twilight 5:16 AM AKST 6:47 PM AKST
Astronomical Twilight 4:32 AM AKST 7:31 PM AKST
Moon No Moon Rise 8:03 AM AKST (3/2)
Length of Visible Light 12h 03m
Length of Day
10h 48m
Waning Gibbous, 72% of the Moon is Illuminated
Mar 2
Waning Gibbous
Mar 4
Last Quarter
Mar 11
New
Mar 19
First Quarter
Mar 27
Full

Hourly Weather History & Observations

Time (AKST) Temp. Windchill Dew Point Humidity Pressure Visibility Wind Dir Wind Speed Gust Speed Precip Events Conditions
12:16 AM 39.2 °F 35.0 °F 33.8 °F 81% 29.99 in 10.0 mi East 5.8 mph - N/A   Mostly Cloudy
12:36 AM 37.4 °F 33.8 °F 32.0 °F 81% 30.00 in 10.0 mi South 4.6 mph - N/A   Overcast
12:56 AM 37.4 °F 32.1 °F 32.0 °F 81% 29.99 in 10.0 mi SE 6.9 mph - N/A   Overcast
1:16 AM 37.4 °F - 32.0 °F 81% 29.99 in 10.0 mi Calm Calm - N/A   Overcast
1:36 AM 37.4 °F - 32.0 °F 81% 29.99 in 10.0 mi Calm Calm - N/A   Overcast
1:56 AM 37.4 °F 33.8 °F 32.0 °F 81% 29.99 in 10.0 mi ESE 4.6 mph - N/A   Overcast
2:16 AM 37.4 °F 32.1 °F 32.0 °F 81% 29.99 in 10.0 mi ESE 6.9 mph - N/A   Overcast
2:36 AM 37.4 °F 31.4 °F 32.0 °F 81% 29.99 in 10.0 mi East 8.1 mph - N/A   Overcast
2:56 AM 37.4 °F 29.8 °F 32.0 °F 81% 29.98 in 10.0 mi East 11.5 mph - N/A   Overcast
3:16 AM 37.4 °F 29.3 °F 32.0 °F 81% 29.98 in 10.0 mi East 12.7 mph - 0.01 in   Overcast
3:36 AM 37.4 °F 29.8 °F 32.0 °F 81% 29.98 in 10.0 mi East 11.5 mph - 0.01 in   Overcast
3:56 AM 37.4 °F 30.3 °F 32.0 °F 81% 29.98 in 10.0 mi East 10.4 mph - 0.01 in   Overcast
4:16 AM 37.4 °F 29.8 °F 33.8 °F 87% 29.97 in 10.0 mi East 11.5 mph - N/A   Overcast
4:36 AM 37.4 °F 30.8 °F 33.8 °F 87% 29.98 in 10.0 mi East 9.2 mph - N/A   Overcast
4:56 AM 37.4 °F 32.1 °F 32.0 °F 81% 29.98 in 10.0 mi ESE 6.9 mph - N/A   Overcast
5:16 AM 37.4 °F 32.1 °F 32.0 °F 81% 29.98 in 10.0 mi ESE 6.9 mph - N/A   Overcast
5:36 AM 37.4 °F 30.8 °F 32.0 °F 81% 29.98 in 10.0 mi ESE 9.2 mph - N/A   Mostly Cloudy
5:56 AM 37.4 °F 31.4 °F 32.0 °F 81% 29.98 in 10.0 mi ESE 8.1 mph - N/A   Mostly Cloudy
6:16 AM 37.4 °F 33.8 °F 33.8 °F 87% 29.98 in 10.0 mi ESE 4.6 mph - N/A   Mostly Cloudy
6:36 AM 37.4 °F 33.8 °F 32.0 °F 81% 29.97 in 10.0 mi ESE 4.6 mph - N/A   Mostly Cloudy
6:56 AM 35.6 °F 30.7 °F 30.2 °F 81% 29.97 in 10.0 mi SSE 5.8 mph - N/A   Mostly Cloudy
7:16 AM 37.4 °F 33.8 °F 32.0 °F 81% 29.98 in 10.0 mi ESE 4.6 mph - N/A   Mostly Cloudy
7:36 AM 37.4 °F 33.8 °F 32.0 °F 81% 29.97 in 10.0 mi ESE 4.6 mph - N/A   Mostly Cloudy
7:56 AM 37.4 °F 32.8 °F 30.2 °F 75% 29.97 in 10.0 mi East 5.8 mph - N/A   Mostly Cloudy
8:16 AM 37.4 °F 32.8 °F 30.2 °F 75% 29.97 in 10.0 mi SSE 5.8 mph - N/A   Mostly Cloudy
8:36 AM 37.4 °F 30.3 °F 33.8 °F 87% 29.97 in 10.0 mi ESE 10.4 mph - N/A   Mostly Cloudy
8:56 AM 37.4 °F 30.3 °F 32.0 °F 81% 29.97 in 10.0 mi ESE 10.4 mph - N/A   Mostly Cloudy
9:16 AM 37.4 °F 30.8 °F 33.8 °F 87% 29.98 in 10.0 mi East 9.2 mph - N/A   Mostly Cloudy
9:36 AM 37.4 °F 29.8 °F 33.8 °F 87% 29.98 in 10.0 mi East 11.5 mph - 0.01 in   Mostly Cloudy
9:56 AM 37.4 °F 30.8 °F 32.0 °F 81% 29.99 in 10.0 mi ESE 9.2 mph - 0.01 in   Overcast
10:16 AM 35.6 °F 28.6 °F 32.0 °F 87% 29.99 in 10.0 mi East 9.2 mph - 0.02 in   Overcast
10:36 AM 35.6 °F 29.2 °F 32.0 °F 87% 30.00 in 10.0 mi East 8.1 mph - 0.02 in   Overcast
10:56 AM 37.4 °F 30.3 °F 33.8 °F 87% 30.01 in 7.0 mi ESE 10.4 mph - 0.03 in   Overcast
11:16 AM 35.6 °F 29.2 °F 33.8 °F 93% 30.01 in 7.0 mi East 8.1 mph - 0.01 in   Overcast
11:36 AM 35.6 °F 28.0 °F 32.0 °F 87% 30.02 in 7.0 mi ESE 10.4 mph - 0.02 in   Overcast
11:56 AM 35.6 °F 29.9 °F 32.0 °F 87% 30.02 in 7.0 mi East 6.9 mph - 0.03 in   Overcast
12:16 PM 37.4 °F 32.8 °F 33.8 °F 87% 30.02 in 7.0 mi East 5.8 mph - 0.01 in   Overcast
12:36 PM 37.4 °F 33.8 °F 33.8 °F 87% 30.03 in 7.0 mi ESE 4.6 mph - 0.01 in   Overcast
12:56 PM 37.4 °F 34.9 °F 33.8 °F 87% 30.03 in 10.0 mi SE 3.5 mph - 0.01 in   Mostly Cloudy
1:16 PM 37.4 °F 34.9 °F 33.8 °F 87% 30.03 in 10.0 mi ENE 3.5 mph - N/A   Mostly Cloudy
1:36 PM 37.4 °F 34.9 °F 33.8 °F 87% 30.03 in 10.0 mi North 3.5 mph - N/A   Mostly Cloudy
1:56 PM 37.4 °F - 33.8 °F 87% 30.04 in 10.0 mi Calm Calm - N/A   Mostly Cloudy
2:16 PM 37.4 °F 34.9 °F 33.8 °F 87% 30.04 in 10.0 mi NNW 3.5 mph - N/A   Mostly Cloudy
2:36 PM 37.4 °F 34.9 °F 33.8 °F 87% 30.04 in 10.0 mi NNW 3.5 mph - N/A   Mostly Cloudy
2:56 PM 39.2 °F 37.0 °F 33.8 °F 81% 30.04 in 10.0 mi NW 3.5 mph - N/A   Partly Cloudy
3:16 PM 39.2 °F 35.0 °F 33.8 °F 81% 30.04 in 10.0 mi NW 5.8 mph - N/A   Partly Cloudy
3:36 PM 39.2 °F 35.9 °F 33.8 °F 81% 30.05 in 10.0 mi NNW 4.6 mph - N/A   Partly Cloudy
3:56 PM 37.4 °F 32.1 °F 32.0 °F 81% 30.05 in 10.0 mi NNW 6.9 mph - N/A   Mostly Cloudy
4:16 PM 37.4 °F 32.8 °F 32.0 °F 81% 30.06 in 10.0 mi NNW 5.8 mph - N/A   Mostly Cloudy
4:36 PM 37.4 °F 32.8 °F 32.0 °F 81% 30.06 in 10.0 mi NNW 5.8 mph - N/A   Mostly Cloudy
4:56 PM 37.4 °F 34.9 °F 30.2 °F 75% 30.07 in 10.0 mi NW 3.5 mph - N/A   Scattered Clouds
5:16 PM 37.4 °F 34.9 °F 32.0 °F 81% 30.07 in 10.0 mi North 3.5 mph - N/A   Scattered Clouds
5:36 PM 37.4 °F 32.1 °F 30.2 °F 75% 30.08 in 10.0 mi NW 6.9 mph - N/A   Scattered Clouds
5:56 PM 37.4 °F 32.8 °F 32.0 °F 81% 30.09 in 10.0 mi NNW 5.8 mph - N/A   Clear
6:16 PM 37.4 °F 33.8 °F 32.0 °F 81% 30.09 in 10.0 mi NNW 4.6 mph - N/A   Clear
6:36 PM 37.4 °F - 33.8 °F 87% 30.10 in 10.0 mi Calm Calm - N/A   Clear
6:56 PM 35.6 °F 31.7 °F 32.0 °F 87% 30.11 in 10.0 mi NNW 4.6 mph - N/A   Clear
7:16 PM 35.6 °F 31.7 °F 32.0 °F 87% 30.11 in 10.0 mi North 4.6 mph - N/A   Clear
7:36 PM 35.6 °F 30.7 °F 30.2 °F 81% 30.12 in 10.0 mi NNW 5.8 mph - N/A   Clear
7:56 PM 35.6 °F - 30.2 °F 81% 30.13 in 10.0 mi Calm Calm - N/A   Partly Cloudy
8:16 PM 35.6 °F 31.7 °F 30.2 °F 81% 30.14 in 10.0 mi North 4.6 mph - N/A   Partly Cloudy
8:36 PM 35.6 °F 30.7 °F 30.2 °F 81% 30.14 in 10.0 mi NNW 5.8 mph - N/A   Partly Cloudy
8:56 PM 35.6 °F 30.7 °F 30.2 °F 81% 30.15 in 10.0 mi NNW 5.8 mph - N/A   Mostly Cloudy
9:16 PM 35.6 °F - 30.2 °F 81% 30.16 in 10.0 mi Calm Calm - N/A   Mostly Cloudy
9:36 PM 35.6 °F 32.8 °F 30.2 °F 81% 30.16 in 10.0 mi NNW 3.5 mph - N/A   Mostly Cloudy
9:56 PM 35.6 °F 31.7 °F 30.2 °F 81% 30.17 in 10.0 mi NW 4.6 mph - N/A   Mostly Cloudy
10:16 PM 33.8 °F - 30.2 °F 87% 30.17 in 10.0 mi Calm Calm - N/A   Mostly Cloudy
10:36 PM 33.8 °F 30.8 °F 28.4 °F 81% 30.18 in 10.0 mi West 3.5 mph - N/A   Mostly Cloudy
10:56 PM 33.8 °F - 28.4 °F 81% 30.19 in 10.0 mi Calm Calm - N/A   Mostly Cloudy
11:16 PM 33.8 °F - 28.4 °F 81% 30.20 in 10.0 mi Calm Calm - N/A   Overcast
11:36 PM 33.8 °F 30.8 °F 28.4 °F 81% 30.21 in 10.0 mi NNW 3.5 mph - N/A   Overcast
11:56 PM 35.6 °F - 30.2 °F 81% 30.22 in 10.0 mi Calm Calm - N/A   Overcast